K1WTX-1 Weather Reports


Display with metric or nautical units.
time (UTC)temp
F
wind
direction
speed
MPH
gust
MPH
rain 1hr
in
rain 24hr
in
rain mn
in
humidity
%
barometer
mb
20221209014550 32 319 8.0 13.0 0.00 0.00 0.00 76 1022.4
20221209011535 33 304 8.0 16.0 0.00 0.00 0.00 75 1022.3
20221209004534 33 312 10.0 17.0 0.00 0.00 0.00 76 1021.8
20221209001533 34 314 8.0 23.0 0.00 0.00 0.00 78 1021.8
20221208234549 33 307 12.0 16.0 0.00 0.00 0.00 80 1022.5
20221208231534 34 315 5.0 12.0 0.00 0.00 0.00 80 1023.9
20221208224533 34 298 8.0 12.0 0.00 0.00 0.00 78 1022.3
20221208221550 35 291 8.0 16.0 0.00 0.00 0.00 76 1022.2
20221208214549 36 322 11.0 21.0 0.00 0.00 0.00 73 1021.2
20221208211539 37 309 13.0 22.0 0.00 0.00 0.00 72 1020.8
20221208204535 39 308 9.0 19.0 0.00 0.00 0.00 69 1021.0
20221208201536 40 313 10.0 19.0 0.00 0.00 0.00 67 1020.9
20221208194532 41 314 10.0 18.0 0.00 0.00 0.00 67 1020.3
20221208191535 41 307 15.0 23.0 0.00 0.00 0.00 65 1019.7
20221208184532 43 318 6.0 17.0 0.00 0.00 0.00 66 1019.6
20221208181532 44 348 10.0 25.0 0.00 0.00 0.00 66 1019.5
20221208174533 42 323 15.0 24.0 0.00 0.00 0.00 65 1019.1
20221208171549 44 322 8.0 29.0 0.00 0.00 0.00 66 1018.9
20221208164544 44 284 11.0 19.0 0.00 0.00 0.00 66 1018.8
20221208161546 43 299 15.0 22.0 0.00 0.00 0.00 67 1019.4
20221208154536 43 303 9.0 18.0 0.00 0.00 0.00 71 1019.0
20221208151538 42 301 9.0 18.0 0.00 0.00 0.00 73 1019.3
20221208144532 41 310 16.0 30.0 0.00 0.00 0.00 77 1019.1
20221208141549 41 303 16.0 27.0 0.00 0.00 0.00 82 1018.9
20221208134545 40 297 7.0 14.0 0.00 0.00 0.00 88 1018.8
20221208131538 39 299 9.0 15.0 0.00 0.00 0.00 92 1018.3
20221208124551 38 294 9.0 12.0 0.00 0.00 0.00 95 1018.9
20221208121544 39 296 2.0 14.0 0.00 0.00 0.00 95 1018.7
20221208114538 40 318 6.0 14.0 0.00 0.00 0.00 97 1018.5
20221208111636 41 313 6.0 17.0 0.00 0.00 0.00 100 1018.4
20221208104535 41 316 6.0 19.0 0.00 0.00 0.00 100 1017.1
20221208101546 40 296 8.0 13.0 0.00 0.00 0.00 100 1016.7
20221208094548 41 299 6.0 12.0 0.00 0.00 0.00 100 1016.8
20221208091546 42 330 4.0 12.0 0.00 0.00 0.00 100 1017.1
20221208084544 42 320 5.0 16.0 0.00 0.00 0.00 100 1016.7
20221208081545 42 296 5.0 11.0 0.00 0.00 0.00 100 1016.6
20221208074551 43 303 8.0 21.0 0.00 0.00 0.00 100 1016.4
20221208071549 44 305 5.0 8.0 0.00 0.00 0.00 100 1016.3
20221208064535 43 320 7.0 11.0 0.00 0.00 0.00 100 1016.1
20221208061537 42 277 3.0 6.0 0.00 0.00 0.00 100 1015.4
20221208054544 41 298 4.0 7.0 0.00 0.00 0.00 100 1015.3
20221208051542 42 316 2.0 5.0 0.00 0.00 0.00 100 1015.2
20221208044534 42 319 3.0 5.0 0.00 0.00 0.74 100 1015.1
20221208041537 43 322 2.0 5.0 0.00 0.00 0.74 100 1015.1
20221208034541 44 324 1.0 7.0 0.00 0.00 0.74 100 1015.3
20221208031543 44 308 3.0 5.0 0.00 0.00 0.74 100 1015.5
20221208024540 45 304 0.0 3.0 0.00 0.00 0.74 100 1015.7
20221208021544 45 304 1.0 2.0 0.00 0.00 0.74 100 1015.9